Regional Weather Roundup
Issued by NWS Bismarck, ND

Home | Current Version | Previous Version | Text Only | Print | Product List | Glossary On
Versions: 1 2 3 4 5 6 7 8 9 10 11 12 13 14 15 16 17 18 19 20 21 22 23 24 25 26 27 28 29 30 31 32 33 34 35 36 37 38 39 40 41 42 43 44 45 46 47 48 49 50
000
ASUS43 KBIS 230110
RWRBIS

NWR BROADCAST TEXT
NATIONAL WEATHER SERVICE BISMARCK ND
700 PM CST SAT NOV 22 2014

NOTE: "FAIR" INDICATES FEW OR NO CLOUDS BELOW 12,000 FEET WITH NO
SIGNIFICANT WEATHER AND/OR OBSTRUCTIONS TO VISIBILITY.


CITY           SKY/WX    TMP DP  RH WIND       PRES   REMARKS
WILLISTON      PTCLDY    31  29  92 SW7       29.27S
MINOT          CLOUDY    43  31  62 SW12      29.24S
MINOT AFB      CLOUDY    37  31  79 W7        29.24R
BISMARCK       CLOUDY    36  33  89 S5        29.35S
DICKINSON      MOCLDY    37  34  89 SW12      29.31S
GARRISON         N/A     39  32  76 W6        29.28R
HETTINGER ARPT CLOUDY    39  34  82 CALM      29.38S
JAMESTOWN      MOCLDY    33  28  81 S7        29.34F
BEACH          FAIR      36  36 100 SW7       29.35R
CROSBY         FAIR      34  32  93 S10       29.23R
HARVEY         FAIR      36  28  75 SE7       29.30F
HAZEN          FAIR      36  32  87 SW6       29.31R
LINTON         FAIR      36  32  87 SW10      29.37S
MANDAN         MIX PCPN  41  37  87 CALM      29.34S
OAKES            N/A     32  32 100 SE7       29.38F
RUGBY          FAIR      37  32  81 SE12      29.27F
STANLEY        FAIR      32  32 100 W9        29.26S
TIOGA          FAIR      37  36  93 SW14      29.28S
$$

CITY           SKY/WX    TMP DP  RH WIND       PRES   REMARKS
GRAND FORKS    CLOUDY    36  30  79 SE7       29.40F
GRAND FORKS AF CLOUDY    35  32  88 SE8       29.39F
DEVILS LAKE    CLOUDY    36  25  64 SE9       29.32S
FARGO          CLOUDY    35  30  82 S18       29.43F
CANDO          FAIR      36  28  75 SE8       29.33F
CAVALIER       CLOUDY    32  28  86 SE7       29.39F
GRAFTON        MOCLDY    32  30  93 E7        29.39F
GWINNER        CLEAR     34  32  93 SE10      29.41F
LANGDON        FAIR      32  28  86 SE16      29.33F
ROLLA          CLOUDY    34  32  93 S10G18    29.29R
WALHALLA         N/A     32  32 100 SE9       29.39F
$$

CITY           SKY/WX    TMP DP  RH WIND       PRES   REMARKS
ABERDEEN       PTCLDY    31  29  92 SW3       29.39F
MOBRIDGE       CLOUDY    39  31  72 SE3       29.36S
BUFFALO          N/A     40  30  67 S8        29.31S
RAPID CITY     CLOUDY    46  29  51 CALM      29.41R
GLASGOW        CLEAR     41  24  51 W18       29.29R
SIDNEY         PTCLDY    34  30  86 S7        29.33R
WOLF POINT     PTCLDY    40  30  67 W8        29.28R
GLENDIVE       MOCLDY    41  34  75 SW14      29.35R
MILES CITY     CLOUDY    48  31  51 W22G28    29.37R
BAKER          CLOUDY    42  34  73 SW12      29.37R
$$

CITY           SKY/WX    TMP DP  RH WIND       PRES   REMARKS
BILLINGS       PTCLDY    43  17  35 W25G35    29.48R
GREAT FALLS    MOCLDY    37  19  48 W22G31    29.48R
REGINA         LGT RAIN  36  34  93 S7        29.11S
ESTEVAN        PTCLDY    36  30  80 SW13      29.20R
$$



USA.gov is the U.S. government's official web portal to all federal, state and local government web resources and services.